Simultaneous Nadir Overpasses (SNOs) Predictions

Prediction of SNOs between AQUA and NOAA-19 Satellite Orbit:

Table of predicted SNOs for the next 14.0 days since TLE Epoch: 2/2/2018
Index Date (AQUA) Time (AQUA) Lat,Lon (AQUA) SZA (AQUA ) Date (NOAA-19) Time (NOAA-19) Lat,Lon (NOAA-19) SZA (NOAA-19 ) Distance(km) Time Diff (sec)
1 02/05/2018 02:22:56 80.87, 104.77 99.17 02/05/2018 02:22:27 80.87, 104.74 99.19 0.63 29
2 02/05/2018 03:12:23 -80.89, -87.87 80.80 02/05/2018 03:13:32 -80.88, -87.73 80.86 2.92 69
3 02/07/2018 07:56:41 -80.87,-158.65 81.52 02/07/2018 07:56:12 -80.87,-158.57 81.51 1.56 29
4 02/07/2018 08:46:08 80.87, 8.93 98.49 02/07/2018 08:47:07 80.88, 8.96 98.46 0.84 59
5 02/09/2018 13:30:27 80.88, -62.26 97.81 02/09/2018 13:29:48 80.87, -62.18 97.82 1.99 39
6 02/09/2018 14:19:53 -80.87, 105.52 82.22 02/09/2018 14:20:52 -80.88, 105.53 82.25 0.68 59
7 02/11/2018 19:04:12 -80.88, 34.34 82.92 02/11/2018 19:03:33 -80.86, 34.25 82.90 2.20 39
8 02/11/2018 19:53:39 80.89,-158.15 97.09 02/11/2018 19:54:28 80.87,-157.99 97.04 3.37 49
9 02/14/2018 00:37:56 80.87, 130.96 96.33 02/14/2018 00:37:08 80.86, 130.84 96.36 2.48 48
10 02/14/2018 01:27:22 -80.86, -61.19 83.72 02/14/2018 01:28:11 -80.87, -61.34 83.71 3.14 49
11 02/16/2018 06:11:41 -80.87,-132.41 84.45 02/16/2018 06:10:51 -80.87,-132.31 84.44 1.79 50




NCC Satellite Simultaneous Nadir Overpasses (SNOs) Prediction Service
